Location: Franzen
(48.6167°N, 15.3833°E)
Time: 09:56:40
(UTC+00:00)

Meteor 2-16 Rocket - Pass Details

Date: 22 April 2021
Orbit: 942 x 955 km, 82.6° (Epoch: 16 May)

Event Time Altitude Azimuth Distance (km) Brightness Sun altitude
Rises 19:43:01 0° 350° (N) 3,645 8.3 -15.4°
Reaches altitude 10° 19:45:32 10° 351° (N) 2,696 7.5 -15.7°
Maximum altitude 19:51:44 83° 81° (E) 969 4.4 -16.5°
Enters shadow 19:56:11 20° 168° (SSE) 2,059 5.7 -17.0°
